[[{"header":{"parameterUnit":"m.s-1","parameterCategory":1,"la1":30.2991,"la2":30.254,"lo1":-89.0895,"lo2":-89.0444,"dy":0.0017,"dx":0.0017,"nx":28,"ny":28,"refTime":"2024-06-07T09:00:00:Z","depth":0,"parameterNumber":2,"parameterNumberName":"U-component_of_WINDS"},"data":[0,0,0,0,0,0,0,0,0,0,0,0,0,0,0,0,0,0,0,0,0,0,0,0,0,0,0,0,0,0,0,0,0,0,0,0,0,0,0,0,0,0,0,0,0,0,0,0,0,0,0,0,0,0,0,0,0,0,-0.8514,-0.8513,0,-0.8414,-0.8413,-0.8412,-0.8362,-0.8362,-0.8362,-0.8362,-0.8257,-0.8254,-0.8251,0,0,0,0,0,0,0,0,0,0,0,0,0,-0.8661,-0.8658,-0.8514,-0.8513,-0.8512,-0.8414,-0.8413,-0.8411,-0.8362,-0.8362,-0.8362,-0.8362,-0.8258,-0.8254,-0.8251,0,0,0,0,0,0,0,0,0,0,0,0,0,-0.8582,-0.8657,-0.8514,-0.8475,-0.8471,-0.8414,-0.8413,-0.8411,-0.8362,-0.8362,-0.8362,-0.8362,-0.8259,-0.8255,-0.8251,-0.8225,0,0,-0.8238,-0.8236,0,0,0,0,0,0,0,0,-0.8587,-0.8577,-0.8482,-0.8478,-0.8473,-0.84,-0.8426,-0.8348,-0.8362,-0.8403,-0.8362,-0.8362,-0.8304,-0.8296,-0.8278,-0.822,-0.8215,-0.8237,-0.8235,-0.8233,-0.8232,0,0,0,0,0,0,0,-0.8592,-0.8581,-0.8474,-0.8481,-0.8475,-0.8462,-0.8451,-0.8411,-0.8355,-0.84,-0.8396,-0.8385,-0.8302,-0.8282,-0.8275,-0.8214,-0.8237,-0.8234,-0.8231,-0.8229,-0.8129,-0.8129,0,0,0,0,0,0,-0.8604,-0.8586,-0.8478,-0.8471,-0.8531,-0.8459,-0.8447,-0.8424,-0.8355,-0.8345,-0.8385,-0.8383,-0.8289,-0.828,-0.8271,-0.8235,-0.8233,-0.8229,-0.8227,-0.8129,-0.8129,-0.8129,0,0,0,0,0,0,-0.8608,-0.8595,-0.8482,-0.8528,-0.8512,-0.8457,-0.8431,-0.8422,-0.8402,-0.8344,-0.8334,-0.8375,-0.8289,-0.8277,-0.8236,-0.8231,-0.8227,-0.8223,-0.8129,-0.8129,-0.8129,-0.8165,0,0,0,0,0,0,-0.8612,-0.8597,-0.8587,-0.8528,-0.851,-0.845,-0.8431,-0.842,-0.8395,-0.8391,-0.8332,-0.8322,-0.8288,-0.8243,-0.8232,-0.8225,-0.822,-0.8129,-0.8129,-0.8129,-0.8164,-0.8166,-0.8168,0,0,0,0,0,-0.8618,-0.86,-0.8587,-0.8574,-0.8496,-0.845,-0.8439,-0.8401,-0.8395,-0.8384,-0.8347,-0.8324,-0.8234,-0.8239,-0.8227,-0.8218,-0.8129,-0.8129,-0.8129,-0.8163,-0.8165,-0.8168,0,0,0,0,0,0,-0.8659,-0.8592,-0.8576,-0.8539,-0.8501,-0.8441,-0.8426,-0.8405,-0.8366,-0.8364,-0.8317,-0.8304,-0.8268,-0.8239,-0.8247,-0.8189,-0.8179,-0.8176,-0.821,-0.8211,-0.8213,-0.8221,-0.8217,0,0,0,0,0,-0.8665,-0.8633,-0.8575,-0.8549,-0.853,-0.8482,-0.846,-0.8434,-0.8391,-0.8375,-0.8335,-0.8294,-0.8256,-0.8232,-0.8195,-0.816,-0.8146,-0.8148,-0.815,-0.8152,-0.8149,-0.8128,-0.8128,-0.8127,-0.8127,-0.8127,0,0,-0.8674,-0.8634,-0.8616,-0.8556,-0.8523,-0.849,-0.8468,-0.8435,-0.841,-0.8369,-0.8329,-0.8298,-0.825,-0.8212,-0.8193,-0.8187,-0.8147,-0.8151,-0.8153,-0.815,-0.8128,-0.8128,-0.8128,-0.8127,-0.8127,-0.8127,0,0,-0.8676,-0.8642,-0.8616,-0.8583,-0.8534,-0.8502,-0.8496,-0.844,-0.8418,-0.8377,-0.8346,-0.8316,-0.8252,-0.8219,-0.8193,-0.8183,-0.816,-0.8172,-0.8181,-0.8161,-0.8161,-0.8161,-0.8157,-0.8156,-0.817,-0.817,-0.817,0,-0.8694,-0.8644,-0.8605,-0.8573,-0.8547,-0.851,-0.8483,-0.8453,-0.8394,-0.8376,-0.837,-0.829,-0.8254,-0.8208,-0.8206,-0.8187,-0.8177,-0.8178,-0.8165,-0.8164,-0.8163,-0.8158,-0.8157,-0.8172,-0.8171,-0.8171,-0.8171,0,-0.8669,-0.8635,-0.862,-0.8564,-0.8536,-0.8507,-0.8463,-0.844,-0.8416,-0.8385,-0.8343,-0.83,-0.8253,-0.824,-0.8216,-0.819,-0.8188,-0.8174,-0.8162,-0.8166,-0.816,-0.8158,-0.8174,-0.8173,-0.8173,-0.8173,0,0,-0.8692,-0.8616,-0.8611,-0.8585,-0.8528,-0.8501,-0.847,-0.8425,-0.8405,-0.8366,-0.8338,-0.8286,-0.8272,-0.8244,-0.8216,-0.8199,-0.8193,-0.8187,-0.8185,-0.8189,-0.8161,-0.8171,-0.817,-0.8178,-0.8177,-0.8177,-0.8165,0,-0.8685,-0.8628,-0.8592,-0.8549,-0.8517,-0.8482,-0.8455,-0.8417,-0.8387,-0.8354,-0.8321,-0.8284,-0.827,-0.8253,-0.8234,-0.8197,-0.8186,-0.8198,-0.8151,-0.8149,-0.8163,-0.8167,-0.8177,-0.8168,-0.8162,-0.8162,-0.8162,0,-0.8669,-0.8631,-0.8585,-0.8532,-0.8517,-0.8493,-0.8449,-0.8419,-0.8375,-0.8354,-0.8323,-0.8295,-0.826,-0.8253,-0.8204,-0.8213,-0.8191,-0.8171,-0.8169,-0.8162,-0.8155,-0.8159,-0.8164,-0.8162,-0.8158,-0.8158,-0.8159,0,-0.869,-0.8627,-0.8592,-0.8571,-0.8508,-0.8492,-0.8465,-0.8421,-0.8396,-0.8357,-0.834,-0.8298,-0.8274,-0.8242,-0.8203,-0.8201,-0.8158,-0.8147,-0.8139,-0.814,-0.813,-0.8131,-0.8131,-0.8118,-0.8118,-0.8119,-0.8119,0,-0.8685,-0.8658,-0.86,-0.8578,-0.8547,-0.8506,-0.8476,-0.8446,-0.8408,-0.8379,-0.8346,-0.8319,-0.827,-0.8238,-0.8207,-0.8171,-0.8161,-0.8142,-0.8134,-0.8145,-0.8147,-0.8129,-0.8129,-0.8118,-0.8118,-0.8118,-0.8118,0,-0.8702,-0.8663,-0.8622,-0.8566,-0.8551,-0.8531,-0.8482,-0.846,-0.8428,-0.8392,-0.8381,-0.8332,-0.8292,-0.8251,-0.8196,-0.8176,-0.814,-0.813,-0.8155,-0.8151,-0.8145,-0.8146,-0.8132,-0.8128,-0.8119,-0.812,-0.812,0,-0.8701,-0.868,-0.8622,-0.8601,-0.8575,-0.8541,-0.8515,-0.8474,-0.8449,-0.8397,-0.838,-0.8338,-0.8302,-0.824,-0.8199,-0.8157,-0.8144,-0.8143,-0.8138,-0.8149,-0.8143,-0.8145,-0.8142,-0.8144,-0.8144,-0.8145,-0.8145,0,-0.8703,-0.8685,-0.865,-0.8608,-0.8579,-0.8544,-0.8507,-0.8492,-0.8443,-0.8416,-0.8376,-0.8348,-0.8293,-0.8251,-0.8204,-0.8176,-0.8152,-0.8147,-0.8142,-0.8152,-0.8168,-0.8159,-0.8159,-0.8147,-0.8147,-0.8147,-0.8146,-0.8146,-0.8711,-0.869,-0.8646,-0.8608,-0.8577,-0.8544,-0.8519,-0.8485,-0.8451,-0.8403,-0.8381,-0.834,-0.8296,-0.8231,-0.8203,-0.817,-0.8164,-0.8158,-0.8156,-0.8155,-0.8157,-0.8174,-0.8162,-0.8162,-0.8162,-0.8161,-0.8161,0,-0.871,-0.8681,-0.8646,-0.8597,-0.8567,-0.8548,-0.8507,-0.8483,-0.8447,-0.8409,-0.8375,-0.8328,-0.8287,-0.8243,-0.82,-0.8182,-0.817,-0.8172,-0.8172,-0.8166,-0.8166,-0.8174,-0.8182,-0.8182,-0.8182,-0.8182,-0.8182,-0.8182,-0.8707,-0.867,-0.8647,-0.8595,-0.8565,-0.8525,-0.8503,-0.8472,-0.8441,-0.839,-0.8357,-0.8329,-0.8288,-0.8242,-0.8204,-0.8192,-0.8177,-0.8182,-0.8167,-0.8168,-0.8166,-0.8164,-0.8171,-0.818,-0.818,-0.817,-0.817,-0.817]},{"header":{"parameterUnit":"m.s-1","parameterCategory":1,"la1":30.2991,"la2":30.254,"lo1":-89.0895,"lo2":-89.0444,"dy":0.0017,"dx":0.0017,"nx":28,"ny":28,"refTime":"2024-06-07T09:00:00:Z","depth":0,"parameterNumber":3,"parameterNumberName":"V-component_of_WINDS"},"data":[0,0,0,0,0,0,0,0,0,0,0,0,0,0,0,0,0,0,0,0,0,0,0,0,0,0,0,0,0,0,0,0,0,0,0,0,0,0,0,0,0,0,0,0,0,0,0,0,0,0,0,0,0,0,0,0,0,0,2.2711,2.2711,0,2.2725,2.2725,2.2725,2.2766,2.2767,2.2768,2.2769,2.278,2.278,2.2779,0,0,0,0,0,0,0,0,0,0,0,0,0,2.2718,2.2717,2.2711,2.2711,2.2712,2.2725,2.2725,2.2725,2.2766,2.2767,2.2768,2.2769,2.278,2.278,2.2779,0,0,0,0,0,0,0,0,0,0,0,0,0,2.2721,2.2717,2.2711,2.2733,2.2736,2.2725,2.2725,2.2725,2.2766,2.2767,2.2768,2.277,2.2781,2.278,2.2779,2.2747,0,0,2.2777,2.2776,0,0,0,0,0,0,0,0,2.2721,2.2721,2.273,2.2732,2.2734,2.2745,2.2732,2.2733,2.2765,2.2754,2.2769,2.277,2.2767,2.2768,2.2767,2.2748,2.2748,2.2777,2.2776,2.2776,2.2776,0,0,0,0,0,0,0,2.2721,2.2721,2.2717,2.273,2.2733,2.2742,2.2744,2.2732,2.2753,2.2755,2.2758,2.2759,2.2769,2.2768,2.2768,2.2748,2.2777,2.2776,2.2775,2.2775,2.2704,2.2702,0,0,0,0,0,0,2.2718,2.272,2.2716,2.2717,2.2731,2.2741,2.2743,2.274,2.2753,2.2756,2.2758,2.2761,2.2769,2.2769,2.2768,2.2732,2.2776,2.2775,2.2775,2.2705,2.2703,2.2702,0,0,0,0,0,0,2.2718,2.2717,2.2716,2.2719,2.272,2.2739,2.2736,2.274,2.2739,2.2756,2.2759,2.2754,2.277,2.2769,2.2752,2.2733,2.2775,2.2774,2.2707,2.2705,2.2703,2.266,0,0,0,0,0,0,2.2718,2.2717,2.2705,2.2719,2.272,2.27,2.2735,2.2739,2.2738,2.2742,2.2752,2.2755,2.2771,2.2753,2.2752,2.2733,2.2773,2.2709,2.2706,2.2703,2.2663,2.2656,2.2651,0,0,0,0,0,2.2718,2.2692,2.2705,2.2704,2.2706,2.2699,2.2699,2.2718,2.2736,2.2725,2.2735,2.2755,2.2736,2.2751,2.275,2.273,2.271,2.2707,2.2703,2.2666,2.2658,2.2651,0,0,0,0,0,0,2.2675,2.2694,2.2708,2.2686,2.2691,2.2706,2.2692,2.2709,2.2708,2.2711,2.2734,2.2736,2.2716,2.2721,2.2739,2.27,2.2726,2.2722,2.2698,2.269,2.2684,2.2684,2.2773,0,0,0,0,0,2.2663,2.2656,2.2673,2.2652,2.2654,2.2672,2.267,2.2684,2.2689,2.2691,2.27,2.2704,2.2699,2.2695,2.2691,2.2664,2.2667,2.265,2.2644,2.2639,2.2635,2.2622,2.2615,2.2691,2.2691,2.2691,0,0,2.2638,2.2648,2.2642,2.2644,2.2649,2.2641,2.2673,2.2663,2.2658,2.2689,2.2674,2.2681,2.2686,2.2664,2.2655,2.2668,2.2615,2.2635,2.263,2.263,2.2618,2.261,2.2604,2.2689,2.269,2.269,0,0,2.2588,2.2595,2.2579,2.2583,2.2591,2.2603,2.2599,2.2612,2.2618,2.2603,2.2627,2.262,2.261,2.2613,2.2614,2.2566,2.2584,2.2564,2.2532,2.2519,2.2513,2.2507,2.2491,2.2484,2.256,2.256,2.256,0,2.2556,2.2546,2.2568,2.2557,2.2557,2.2586,2.2569,2.2572,2.2577,2.2576,2.2591,2.2581,2.2586,2.2565,2.2554,2.2553,2.2549,2.2563,2.2512,2.2507,2.2502,2.2487,2.248,2.2557,2.2558,2.2558,2.2558,0,2.2506,2.2499,2.2484,2.249,2.2488,2.2474,2.2493,2.2489,2.2503,2.2514,2.2499,2.2506,2.2505,2.2501,2.2514,2.2482,2.249,2.2508,2.2534,2.2492,2.2478,2.2472,2.2554,2.2555,2.2556,2.2556,0,0,2.2431,2.2449,2.2443,2.2446,2.2457,2.2451,2.2438,2.2438,2.2433,2.2436,2.2426,2.2417,2.2434,2.2434,2.2448,2.2436,2.2398,2.2456,2.2456,2.2445,2.2364,2.2351,2.2343,2.241,2.2409,2.2408,2.2364,0,2.2384,2.2365,2.2384,2.236,2.2353,2.238,2.2369,2.2374,2.2383,2.2379,2.2389,2.2383,2.2405,2.2406,2.2395,2.2405,2.2382,2.2409,2.2401,2.24,2.2399,2.2336,2.2322,2.228,2.2358,2.2357,2.2356,0,2.2328,2.2329,2.2305,2.2318,2.2315,2.2305,2.2306,2.2301,2.2307,2.2315,2.2315,2.2333,2.2321,2.2346,2.2329,2.2347,2.2344,2.2349,2.2348,2.2348,2.2376,2.2335,2.2266,2.226,2.2348,2.2348,2.2349,0,2.2276,2.2271,2.2257,2.2258,2.2272,2.2264,2.227,2.2277,2.2276,2.2276,2.2275,2.2274,2.2273,2.2272,2.2288,2.2305,2.2269,2.2296,2.2276,2.2275,2.2267,2.2268,2.2198,2.2265,2.2265,2.2265,2.2265,0,2.2223,2.2207,2.2234,2.2224,2.2207,2.2229,2.2211,2.2219,2.2225,2.2218,2.2241,2.2233,2.2255,2.2249,2.2262,2.2246,2.2246,2.2251,2.2255,2.225,2.2249,2.2249,2.2253,2.2263,2.2263,2.2264,2.2264,0,2.2163,2.218,2.2165,2.218,2.2183,2.217,2.2182,2.2174,2.2185,2.2175,2.2174,2.2191,2.2186,2.2202,2.2199,2.2207,2.2185,2.2193,2.2183,2.2186,2.2165,2.2167,2.2093,2.2085,2.2156,2.2155,2.2155,0,2.2128,2.2117,2.213,2.2128,2.2132,2.2127,2.2126,2.2146,2.2144,2.215,2.2141,2.2137,2.2136,2.2126,2.2138,2.2135,2.2144,2.2118,2.2144,2.2139,2.2145,2.2145,2.2145,2.2113,2.2112,2.2111,2.2111,0,2.2065,2.2074,2.2072,2.2073,2.2071,2.2073,2.2076,2.2072,2.2094,2.209,2.2085,2.2084,2.2081,2.2078,2.2078,2.2083,2.21,2.2103,2.2098,2.2093,2.2088,2.2091,2.217,2.2104,2.2105,2.2106,2.2106,2.2106,2.2017,2.2009,2.2017,2.2014,2.2019,2.2021,2.2014,2.2025,2.2021,2.2022,2.2033,2.2026,2.2032,2.2035,2.2038,2.2032,2.2044,2.2037,2.2035,2.2033,2.203,2.2088,2.2032,2.2032,2.2032,2.2033,2.2033,0,2.1957,2.1964,2.1961,2.1964,2.1962,2.1979,2.1983,2.198,2.1974,2.1978,2.1976,2.1971,2.1968,2.1979,2.1977,2.1971,2.1979,2.1969,2.1971,2.1971,2.2019,2.2024,2.1963,2.1963,2.1963,2.1963,2.1963,2.1963,2.1925,2.1912,2.1921,2.191,2.1917,2.1911,2.1912,2.1914,2.1918,2.1911,2.1909,2.1916,2.1924,2.1923,2.192,2.1924,2.1922,2.191,2.1916,2.1961,2.1968,2.1974,2.1979,2.1909,2.1909,2.1869,2.1869,2.1868]}]]